Location: Aldenham
(51.6667°N, 0.3500°W)
Time: 19:31:15
(UTC+00:00)

Altair - Pass Details

Date: 22 February 2026
Orbit: 1502 x 1682 km, 47.2° (Epoch: 10 March)

Event Time Altitude Azimuth Distance (km) Brightness Sun altitude
Rises 05:22:45 0° 251° (WSW) 4,635 - -16.0°
Reaches altitude 10° 05:25:46 10° 249° (WSW) 3,661 - -15.6°
Exits shadow 05:27:27 17° 246° (WSW) 3,139 8.6 -15.3°
Maximum altitude 05:34:50 66° 170° (S) 1,656 7.7 -14.2°
Drops below altitude 10° 05:44:12 10° 91° (E) 3,771 11.1 -12.7°
Sets 05:47:21 0° 89° (E) 4,781 12.2 -12.2°
